MST,Max TemperatureF,Mean TemperatureF,Min TemperatureF,Max Dew PointF,MeanDew PointF,Min DewpointF,Max Humidity, Mean Humidity, Min Humidity, Max Sea Level PressureIn, Mean Sea Level PressureIn, Min Sea Level PressureIn, Max VisibilityMiles, Mean VisibilityMiles, Min VisibilityMiles, Max Wind SpeedMPH, Mean Wind SpeedMPH, Max Gust SpeedMPH,PrecipitationIn, CloudCover, Events, WindDirDegrees
2013-2-1,44,38,31,33,30,27,92,75,57,30.39,30.24,30.11,10,10,10,17,7,,0.01,6,Rain,197
2013-2-2,44,33,21,30,26,21,96,75,53,30.49,30.41,30.28,10,10,10,12,3,14,0.00,2,,215
2013-2-3,41,30,18,31,25,16,96,83,70,30.26,30.16,30.06,10,10,10,10,2,12,0.00,3,,207
2013-2-4,43,39,35,32,29,28,82,70,57,30.04,30.00,29.95,10,10,10,16,9,22,0.00,8,,184
2013-2-5,45,37,29,34,30,27,92,76,60,30.01,29.88,29.76,10,10,9,12,4,,0.01,6,Rain-Snow,222
2013-2-6,44,35,26,30,28,24,89,70,51,30.11,30.00,29.88,10,10,10,16,7,21,T,6,Snow,195
2013-2-7,39,30,20,31,27,23,92,73,54,30.08,30.02,29.97,10,10,6,15,2,21,T,6,Snow,182
2013-2-8,40,33,25,30,27,24,100,82,64,30.10,30.04,29.95,10,10,7,15,1,16,0.00,7,,188
2013-2-9,33,26,19,28,25,17,100,85,69,30.18,30.03,29.93,10,7,2,6,1,6,0.02,6,Snow,239
2013-2-10,36,27,18,27,23,18,100,82,64,30.30,30.22,30.11,10,7,0,7,1,12,0.00,5,Fog,145
2013-2-11,33,27,21,26,23,19,96,83,69,30.23,30.19,30.10,10,10,8,10,2,12,0.00,8,,181
2013-2-12,38,34,30,31,29,26,85,78,70,30.23,30.19,30.08,10,10,9,16,7,20,T,8,Snow,165
2013-2-13,47,37,27,31,26,19,89,63,37,30.25,30.10,30.00,10,10,10,20,8,26,T,5,Rain,224
2013-2-14,42,32,21,24,22,19,100,72,44,30.51,30.40,30.29,10,10,10,12,3,15,0.00,4,,236
2013-2-15,42,33,23,30,26,21,96,76,55,30.55,30.47,30.34,10,10,10,9,3,23,0.00,7,,195
2013-2-16,36,29,22,32,27,21,100,88,75,30.33,30.07,29.82,10,10,4,10,2,13,0.02,6,Rain,195
2013-2-17,37,34,31,34,30,26,100,85,70,30.10,29.94,29.81,10,7,1,13,6,16,0.05,8,Snow,160
2013-2-18,39,30,20,28,24,19,100,74,48,30.14,30.03,29.86,10,8,0,9,2,14,0.00,4,Fog,45
2013-2-19,41,33,25,28,24,21,92,70,48,29.86,29.78,29.71,10,10,10,13,4,18,0.00,6,,5
2013-2-20,36,30,23,32,27,21,92,78,64,29.98,29.86,29.78,10,6,2,14,6,,0.02,8,Snow,144
2013-2-21,35,28,20,28,24,20,96,76,56,30.04,29.99,29.87,10,10,7,17,5,43,T,8,Snow,174
2013-2-22,38,34,30,31,29,25,89,77,64,29.97,29.77,29.60,10,6,1,17,10,22,0.05,8,Snow,164
2013-2-23,37,31,25,31,24,20,89,73,56,30.18,29.86,29.57,10,10,5,17,8,23,T,7,Snow,190
2013-2-24,37,28,18,24,21,15,96,72,48,30.31,30.23,30.15,10,10,10,15,5,18,0.00,7,,216
2013-2-25,43,37,31,27,24,21,72,61,49,30.13,29.95,29.86,10,10,8,22,8,78,T,8,Snow,187
2013-2-26,38,34,30,27,23,20,75,62,48,30.30,30.20,30.03,10,10,10,21,7,23,T,8,,203
2013-2-27,41,32,23,31,24,18,96,71,45,30.32,30.26,30.19,10,9,1,18,3,22,0.01,5,Snow,240
2013-2-28,42,35,27,31,28,25,92,75,57,30.38,30.33,30.24,10,9,2,12,3,15,T,8,Snow,186